[[{"header":{"parameterUnit":"m.s-1","parameterCategory":1,"la1":30.2991,"la2":30.254,"lo1":-89.0895,"lo2":-89.0444,"dy":0.0017,"dx":0.0017,"nx":28,"ny":28,"refTime":"2025-08-04T09:00:00:Z","depth":0,"parameterNumber":2,"parameterNumberName":"U-component_of_WINDS"},"data":[0,0,0,0,0,0,0,0,0,0,0,0,0,0,0,0,0,0,0,0,0,0,0,0,0,0,0,0,0,0,0,0,0,0,0,0,0,0,0,0,0,0,0,0,0,0,0,0,0,0,0,0,0,0,0,0,0,0,-1.9821,-1.9822,0,-1.99,-1.9901,-1.9902,-1.9952,-1.9952,-1.9953,-1.9953,-2.0029,-2.0031,-2.0033,0,0,0,0,0,0,0,0,0,0,0,0,0,-1.971,-1.9711,-1.9821,-1.9822,-1.9823,-1.99,-1.9901,-1.9902,-1.9952,-1.9952,-1.9953,-1.9953,-2.0029,-2.0031,-2.0033,0,0,0,0,0,0,0,0,0,0,0,0,0,-1.977,-1.9712,-1.9821,-1.9857,-1.9861,-1.9899,-1.9901,-1.9902,-1.9952,-1.9952,-1.9953,-1.9953,-2.0028,-2.0031,-2.0033,-2.004,0,0,-2.0041,-2.0042,0,0,0,0,0,0,0,0,-1.9766,-1.9774,-1.9851,-1.9855,-1.9859,-1.9917,-1.989,-1.9948,-1.9952,-1.9917,-1.9953,-1.9953,-1.9991,-1.9997,-2.0011,-2.0043,-2.0047,-2.0041,-2.0043,-2.0044,-2.0045,0,0,0,0,0,0,0,-1.9762,-1.9771,-1.9852,-1.9852,-1.9857,-1.9868,-1.9877,-1.9901,-1.995,-1.992,-1.9924,-1.9933,-1.9994,-2.0008,-2.0013,-2.0048,-2.0041,-2.0044,-2.0045,-2.0046,-2.0089,-2.0089,0,0,0,0,0,0,-1.9753,-1.9767,-1.985,-1.9854,-1.9813,-1.987,-1.988,-1.9898,-1.995,-1.9959,-1.9933,-1.9935,-2.0003,-2.001,-2.0016,-2.0026,-2.0044,-2.0047,-2.0048,-2.009,-2.0089,-2.0089,0,0,0,0,0,0,-1.975,-1.976,-1.9846,-1.9812,-1.9824,-1.9871,-1.9891,-1.9899,-1.9913,-1.996,-1.9968,-1.9938,-2.0004,-2.0012,-2.0034,-2.0029,-2.0048,-2.005,-2.009,-2.0089,-2.0089,-2.0047,0,0,0,0,0,0,-1.9747,-1.9759,-1.9763,-1.9812,-1.9825,-1.9864,-1.9891,-1.99,-1.9918,-1.9922,-1.9967,-1.9975,-2.0005,-2.0029,-2.0036,-2.0033,-2.0052,-2.0091,-2.009,-2.0089,-2.0049,-2.0045,-2.0042,0,0,0,0,0,-1.9743,-1.9747,-1.9763,-1.9772,-1.9832,-1.9864,-1.9872,-1.9907,-1.9918,-1.9921,-1.9951,-1.9974,-2.0029,-2.0031,-2.0039,-2.0037,-2.0091,-2.009,-2.0089,-2.0051,-2.0046,-2.0042,0,0,0,0,0,0,-1.9695,-1.9754,-1.9772,-1.9793,-1.9823,-1.9872,-1.9878,-1.9901,-1.9927,-1.993,-1.9971,-1.9981,-1.9998,-2.002,-2.0021,-2.0046,-2.0063,-2.0063,-2.0031,-2.0027,-2.0023,-2.0017,-2.0054,0,0,0,0,0,-1.9687,-1.971,-1.976,-1.9773,-1.9788,-1.983,-1.9845,-1.987,-1.9902,-1.9915,-1.9946,-1.9976,-2.0,-2.0015,-2.0039,-2.0053,-2.0063,-2.0055,-2.0052,-2.0049,-2.0048,-2.0056,-2.0053,-2.0085,-2.0085,-2.0085,0,0,-1.9671,-1.9706,-1.9717,-1.9764,-1.9791,-1.9812,-1.9841,-1.9862,-1.9877,-1.9918,-1.9941,-1.9964,-2.0,-2.0017,-2.0027,-2.0036,-2.0042,-2.0047,-2.0044,-2.0046,-2.0055,-2.0051,-2.0049,-2.0085,-2.0085,-2.0085,0,0,-1.9651,-1.9681,-1.9695,-1.9721,-1.9761,-1.9789,-1.9792,-1.9838,-1.9856,-1.988,-1.991,-1.9929,-1.9969,-1.9993,-2.0011,-2.0,-2.0021,-2.0006,-1.9987,-1.9994,-1.9992,-1.9989,-1.9984,-1.9982,-2.0006,-2.0006,-2.0006,0,-1.9625,-1.966,-1.9699,-1.9718,-1.9737,-1.9777,-1.979,-1.9813,-1.9858,-1.987,-1.988,-1.9932,-1.9958,-1.9981,-1.9979,-1.9992,-1.9996,-2.0001,-1.9989,-1.9987,-1.9986,-1.9981,-1.998,-2.0004,-2.0004,-2.0004,-2.0005,0,-1.9625,-1.9648,-1.9655,-1.9699,-1.9719,-1.9735,-1.9775,-1.979,-1.9812,-1.9839,-1.9862,-1.9895,-1.9927,-1.9934,-1.9956,-1.996,-1.9965,-1.9982,-1.9999,-1.998,-1.9976,-1.9975,-2.0001,-2.0002,-2.0002,-2.0003,0,0,-1.9578,-1.9643,-1.9645,-1.9665,-1.9712,-1.973,-1.9747,-1.9779,-1.9791,-1.9821,-1.9835,-1.9869,-1.9884,-1.9904,-1.9929,-1.9935,-1.9923,-1.9951,-1.9953,-1.9944,-1.9928,-1.9914,-1.9911,-1.9938,-1.9938,-1.9937,-1.9924,0,-1.9565,-1.9599,-1.9635,-1.9656,-1.9677,-1.9714,-1.9729,-1.9759,-1.9784,-1.9804,-1.9832,-1.9854,-1.9874,-1.9886,-1.9894,-1.9923,-1.992,-1.9924,-1.995,-1.995,-1.9939,-1.991,-1.9896,-1.9881,-1.9923,-1.9923,-1.9923,0,-1.9554,-1.9583,-1.9607,-1.9651,-1.9661,-1.9674,-1.9706,-1.9725,-1.9759,-1.9777,-1.9799,-1.9825,-1.9844,-1.9859,-1.9885,-1.9887,-1.9899,-1.9915,-1.9915,-1.9918,-1.9935,-1.991,-1.9878,-1.9875,-1.9921,-1.9921,-1.9922,0,-1.9515,-1.956,-1.958,-1.9596,-1.9649,-1.9657,-1.9678,-1.9713,-1.973,-1.9757,-1.9768,-1.9797,-1.9812,-1.9833,-1.9866,-1.9875,-1.9887,-1.9906,-1.9901,-1.99,-1.9901,-1.99,-1.9869,-1.9911,-1.9911,-1.9911,-1.9911,0,-1.9496,-1.9509,-1.9563,-1.9575,-1.959,-1.963,-1.9643,-1.9668,-1.9699,-1.9715,-1.9749,-1.9763,-1.9807,-1.9826,-1.9851,-1.9868,-1.9874,-1.9888,-1.9895,-1.9885,-1.9883,-1.9892,-1.9894,-1.9911,-1.9911,-1.9911,-1.9911,0,-1.9455,-1.9493,-1.9516,-1.9564,-1.9576,-1.9585,-1.9625,-1.9638,-1.9665,-1.9685,-1.9692,-1.9734,-1.9759,-1.9794,-1.9828,-1.9846,-1.9857,-1.9869,-1.9846,-1.985,-1.9842,-1.9842,-1.9815,-1.9813,-1.9857,-1.9857,-1.9857,0,-1.944,-1.9451,-1.95,-1.9514,-1.9535,-1.9557,-1.9575,-1.9614,-1.9631,-1.9669,-1.9676,-1.9704,-1.9727,-1.9764,-1.9797,-1.9823,-1.9834,-1.9823,-1.9838,-1.9828,-1.9833,-1.9831,-1.9832,-1.9819,-1.9818,-1.9818,-1.9817,0,-1.9408,-1.9426,-1.9451,-1.9482,-1.9502,-1.9528,-1.9555,-1.9565,-1.961,-1.9626,-1.9652,-1.967,-1.9706,-1.9732,-1.9763,-1.9784,-1.9807,-1.9812,-1.9812,-1.9801,-1.9787,-1.9794,-1.9835,-1.9813,-1.9813,-1.9813,-1.9814,-1.9814,-1.9379,-1.939,-1.9426,-1.9452,-1.9477,-1.9502,-1.9516,-1.9545,-1.9567,-1.96,-1.9622,-1.9646,-1.9678,-1.9722,-1.9742,-1.9761,-1.9771,-1.9771,-1.9771,-1.977,-1.9766,-1.9786,-1.9767,-1.9767,-1.9767,-1.9767,-1.9767,0,-1.9348,-1.9374,-1.9397,-1.9435,-1.9455,-1.9477,-1.9508,-1.9523,-1.9544,-1.9573,-1.9596,-1.9625,-1.965,-1.9685,-1.9712,-1.972,-1.9731,-1.9726,-1.9725,-1.9729,-1.9756,-1.9753,-1.9716,-1.9716,-1.9716,-1.9716,-1.9716,-1.9716,-1.9335,-1.9354,-1.9376,-1.9407,-1.9432,-1.9457,-1.9473,-1.9495,-1.9518,-1.9549,-1.9571,-1.9594,-1.9625,-1.9655,-1.9678,-1.9688,-1.9695,-1.9686,-1.9699,-1.9723,-1.9727,-1.9732,-1.9729,-1.9688,-1.9688,-1.967,-1.967,-1.967]},{"header":{"parameterUnit":"m.s-1","parameterCategory":1,"la1":30.2991,"la2":30.254,"lo1":-89.0895,"lo2":-89.0444,"dy":0.0017,"dx":0.0017,"nx":28,"ny":28,"refTime":"2025-08-04T09:00:00:Z","depth":0,"parameterNumber":3,"parameterNumberName":"V-component_of_WINDS"},"data":[0,0,0,0,0,0,0,0,0,0,0,0,0,0,0,0,0,0,0,0,0,0,0,0,0,0,0,0,0,0,0,0,0,0,0,0,0,0,0,0,0,0,0,0,0,0,0,0,0,0,0,0,0,0,0,0,0,0,-0.6247,-0.6247,0,-0.6244,-0.6244,-0.6244,-0.6236,-0.6236,-0.6235,-0.6235,-0.6234,-0.6235,-0.6235,0,0,0,0,0,0,0,0,0,0,0,0,0,-0.6247,-0.6247,-0.6247,-0.6247,-0.6247,-0.6244,-0.6244,-0.6244,-0.6236,-0.6236,-0.6235,-0.6235,-0.6234,-0.6235,-0.6235,0,0,0,0,0,0,0,0,0,0,0,0,0,-0.6246,-0.6247,-0.6247,-0.6242,-0.6242,-0.6244,-0.6244,-0.6244,-0.6236,-0.6236,-0.6235,-0.6235,-0.6234,-0.6235,-0.6235,-0.6241,0,0,-0.6235,-0.6236,0,0,0,0,0,0,0,0,-0.6246,-0.6246,-0.6243,-0.6243,-0.6242,-0.624,-0.6244,-0.6243,-0.6236,-0.6238,-0.6235,-0.6235,-0.6237,-0.6237,-0.6237,-0.6241,-0.6241,-0.6235,-0.6236,-0.6236,-0.6236,0,0,0,0,0,0,0,-0.6246,-0.6246,-0.6246,-0.6243,-0.6243,-0.6241,-0.6241,-0.6244,-0.6239,-0.6238,-0.6237,-0.6237,-0.6236,-0.6237,-0.6237,-0.6241,-0.6235,-0.6236,-0.6236,-0.6236,-0.6251,-0.6251,0,0,0,0,0,0,-0.6247,-0.6246,-0.6246,-0.6246,-0.6243,-0.6241,-0.6241,-0.6241,-0.6239,-0.6238,-0.6237,-0.6237,-0.6236,-0.6236,-0.6237,-0.6244,-0.6236,-0.6236,-0.6236,-0.6251,-0.6251,-0.6251,0,0,0,0,0,0,-0.6247,-0.6247,-0.6246,-0.6246,-0.6246,-0.6242,-0.6242,-0.6241,-0.6241,-0.6238,-0.6238,-0.6238,-0.6236,-0.6236,-0.624,-0.6244,-0.6236,-0.6236,-0.625,-0.6251,-0.6251,-0.6259,0,0,0,0,0,0,-0.6247,-0.6247,-0.6249,-0.6246,-0.6246,-0.6249,-0.6242,-0.6241,-0.6241,-0.6241,-0.6239,-0.6239,-0.6236,-0.624,-0.624,-0.6244,-0.6236,-0.625,-0.625,-0.6251,-0.6258,-0.6259,-0.626,0,0,0,0,0,-0.6247,-0.6252,-0.6249,-0.6249,-0.6248,-0.6249,-0.6249,-0.6245,-0.6242,-0.6244,-0.6242,-0.6239,-0.6243,-0.624,-0.6241,-0.6245,-0.625,-0.625,-0.6251,-0.6258,-0.6259,-0.626,0,0,0,0,0,0,-0.6257,-0.6251,-0.6248,-0.6252,-0.6251,-0.6248,-0.6251,-0.6247,-0.6248,-0.6247,-0.6243,-0.6242,-0.6247,-0.6246,-0.6243,-0.6251,-0.6246,-0.6247,-0.6251,-0.6252,-0.6253,-0.6254,-0.6237,0,0,0,0,0,-0.6259,-0.626,-0.6256,-0.626,-0.6259,-0.6255,-0.6255,-0.6252,-0.6251,-0.6251,-0.6249,-0.6249,-0.625,-0.6251,-0.6252,-0.6258,-0.6257,-0.6261,-0.6262,-0.6263,-0.6264,-0.6266,-0.6267,-0.6253,-0.6253,-0.6253,0,0,-0.6265,-0.6262,-0.6263,-0.6261,-0.626,-0.6261,-0.6255,-0.6257,-0.6257,-0.6251,-0.6254,-0.6253,-0.6253,-0.6257,-0.6259,-0.6257,-0.6267,-0.6264,-0.6264,-0.6265,-0.6267,-0.6268,-0.6269,-0.6253,-0.6253,-0.6253,0,0,-0.6275,-0.6273,-0.6276,-0.6274,-0.6272,-0.6269,-0.627,-0.6267,-0.6266,-0.6268,-0.6264,-0.6265,-0.6267,-0.6267,-0.6267,-0.6276,-0.6273,-0.6277,-0.6283,-0.6285,-0.6286,-0.6287,-0.629,-0.6292,-0.6277,-0.6277,-0.6277,0,-0.6282,-0.6283,-0.6278,-0.628,-0.6279,-0.6273,-0.6276,-0.6275,-0.6274,-0.6274,-0.6271,-0.6273,-0.6272,-0.6276,-0.6278,-0.6279,-0.6279,-0.6277,-0.6286,-0.6287,-0.6288,-0.6291,-0.6292,-0.6278,-0.6278,-0.6278,-0.6278,0,-0.6292,-0.6293,-0.6296,-0.6293,-0.6293,-0.6296,-0.6291,-0.6292,-0.6288,-0.6286,-0.6289,-0.6287,-0.6288,-0.6288,-0.6286,-0.6292,-0.629,-0.6287,-0.6282,-0.629,-0.6293,-0.6294,-0.6278,-0.6278,-0.6278,-0.6278,0,0,-0.631,-0.6303,-0.6304,-0.6303,-0.63,-0.63,-0.6302,-0.6302,-0.6302,-0.6301,-0.6303,-0.6305,-0.6301,-0.6301,-0.6298,-0.6301,-0.6308,-0.6297,-0.6297,-0.6299,-0.6314,-0.6317,-0.6318,-0.6305,-0.6306,-0.6306,-0.6314,0,-0.6319,-0.6322,-0.6317,-0.6321,-0.6321,-0.6315,-0.6316,-0.6315,-0.6312,-0.6313,-0.631,-0.6311,-0.6307,-0.6307,-0.6309,-0.6306,-0.6311,-0.6306,-0.6307,-0.6307,-0.6308,-0.6319,-0.6322,-0.633,-0.6315,-0.6315,-0.6315,0,-0.6331,-0.6329,-0.6333,-0.6329,-0.6329,-0.633,-0.6329,-0.633,-0.6327,-0.6326,-0.6325,-0.6321,-0.6323,-0.6318,-0.6321,-0.6318,-0.6318,-0.6317,-0.6317,-0.6317,-0.6312,-0.632,-0.6333,-0.6334,-0.6317,-0.6317,-0.6317,0,-0.6343,-0.6342,-0.6344,-0.6343,-0.6338,-0.6339,-0.6337,-0.6335,-0.6334,-0.6333,-0.6333,-0.6333,-0.6333,-0.6333,-0.6329,-0.6326,-0.6332,-0.6327,-0.6331,-0.6331,-0.6333,-0.6333,-0.6346,-0.6333,-0.6333,-0.6333,-0.6333,0,-0.6354,-0.6357,-0.6349,-0.635,-0.6353,-0.6347,-0.635,-0.6347,-0.6345,-0.6346,-0.634,-0.6341,-0.6336,-0.6337,-0.6334,-0.6337,-0.6337,-0.6335,-0.6335,-0.6336,-0.6336,-0.6336,-0.6335,-0.6333,-0.6333,-0.6333,-0.6333,0,-0.6368,-0.6363,-0.6364,-0.6359,-0.6358,-0.636,-0.6356,-0.6357,-0.6354,-0.6355,-0.6355,-0.635,-0.635,-0.6346,-0.6346,-0.6344,-0.6348,-0.6346,-0.6348,-0.6348,-0.6352,-0.6351,-0.6366,-0.6367,-0.6353,-0.6353,-0.6354,0,-0.6376,-0.6377,-0.6372,-0.6371,-0.637,-0.6369,-0.6369,-0.6363,-0.6363,-0.636,-0.6361,-0.6361,-0.636,-0.6361,-0.6358,-0.6358,-0.6356,-0.6361,-0.6356,-0.6357,-0.6356,-0.6356,-0.6356,-0.6362,-0.6362,-0.6362,-0.6362,0,-0.639,-0.6387,-0.6386,-0.6383,-0.6383,-0.6381,-0.6379,-0.6379,-0.6373,-0.6373,-0.6372,-0.6372,-0.6371,-0.6371,-0.6369,-0.6368,-0.6364,-0.6364,-0.6365,-0.6366,-0.6367,-0.6366,-0.6351,-0.6364,-0.6363,-0.6363,-0.6363,-0.6363,-0.6401,-0.6401,-0.6397,-0.6396,-0.6394,-0.6392,-0.6392,-0.6389,-0.6388,-0.6386,-0.6383,-0.6383,-0.6381,-0.6378,-0.6377,-0.6378,-0.6375,-0.6376,-0.6377,-0.6377,-0.6378,-0.6367,-0.6377,-0.6377,-0.6377,-0.6377,-0.6377,0,-0.6414,-0.6411,-0.641,-0.6406,-0.6405,-0.6401,-0.6398,-0.6398,-0.6398,-0.6395,-0.6394,-0.6394,-0.6393,-0.639,-0.6389,-0.639,-0.6388,-0.639,-0.6389,-0.6389,-0.638,-0.6379,-0.6391,-0.6391,-0.6391,-0.6391,-0.6391,-0.6391,-0.6421,-0.6422,-0.6418,-0.6418,-0.6415,-0.6414,-0.6413,-0.6411,-0.6409,-0.6408,-0.6407,-0.6405,-0.6402,-0.6401,-0.64,-0.6399,-0.6399,-0.6401,-0.64,-0.6391,-0.639,-0.6389,-0.6388,-0.6401,-0.6401,-0.6409,-0.6409,-0.6409]}]]